sat.trackr.live / text

‹ back to catalog

STARLINK-5641

NORAD 55359 · 2023-013AE

PAYLOAD ACTIVE UNKNOWN

§ Identity

Operator
Country
US
Launch date
2023-01-26
Launch site
AFETR
Launch vehicle
Mass (kg)
RCS (m²)

Purposes: comms

External: N2YO · Heavens-Above · Gunter

§ Orbital elements

Epoch: 2026-05-24T14:33:41.855616Z

Period
94.27 min
Inclination
43.0024°
Eccentricity
0.0001416
Mean motion
15.27575803 rev/d
Perigee alt
482.1 km
Apogee alt
484.0 km
Semi-major
6,861.2 km
B*
1.0698e-6
RAAN
238.1008°
Arg perigee
268.1515°
Mean anomaly
91.9175°
Rev number
18,324

§ Raw data

STARLINK-56411 55359U 23013AE  26144.60673444 -.00000233  00000+0  10698-5 0  99942 55359  43.0024 238.1008 0001416 268.1515  91.9175 15.27575803183247

JSON: /api/v1/satellites/55359 · /tle

For live sub-satellite position, see the globe view (requires WebGL).

§ Visibility from observer

Set your observer location to see the next 7 days of passes ≥ 10°. The values pass through the URL so the page stays shareable.

No JS? Fill the form by hand. The geolocation button needs JavaScript.